TimeCDT,TemperatureF,Dew PointF,Humidity,Sea Level PressureIn,VisibilityMPH,Wind Direction,Wind SpeedMPH,Gust SpeedMPH,PrecipitationIn,Events,Conditions,WindDirDegrees,DateUTC
12:56 AM,51.1,46.9,86,30.21,10.0,West,3.5,-,N/A,,Clear,280,2013-09-12 05:56:00
1:56 AM,51.1,46.9,86,30.22,10.0,North,5.8,-,N/A,,Clear,360,2013-09-12 06:56:00
2:56 AM,50.0,46.0,86,30.22,10.0,NNW,4.6,-,N/A,,Clear,330,2013-09-12 07:56:00
3:56 AM,51.1,46.9,86,30.23,10.0,NW,3.5,-,N/A,,Clear,320,2013-09-12 08:56:00
4:56 AM,48.9,46.0,90,30.24,10.0,NNW,4.6,-,N/A,,Clear,330,2013-09-12 09:56:00
5:56 AM,48.9,46.0,90,30.26,10.0,NNW,5.8,-,N/A,,Clear,340,2013-09-12 10:56:00
6:56 AM,46.9,45.0,93,30.28,10.0,WNW,4.6,-,N/A,,Clear,300,2013-09-12 11:56:00
7:56 AM,50.0,46.9,89,30.29,10.0,North,5.8,-,N/A,,Clear,350,2013-09-12 12:56:00
8:56 AM,55.0,50.0,83,30.31,10.0,NNW,6.9,-,N/A,,Clear,340,2013-09-12 13:56:00
9:56 AM,59.0,51.1,75,30.32,10.0,Variable,5.8,-,N/A,,Clear,0,2013-09-12 14:56:00
10:56 AM,64.0,51.1,63,30.33,10.0,North,5.8,-,N/A,,Clear,10,2013-09-12 15:56:00
11:56 AM,66.9,53.1,61,30.33,10.0,Variable,5.8,-,N/A,,Partly Cloudy,0,2013-09-12 16:56:00
12:56 PM,66.9,51.1,57,30.32,10.0,North,3.5,-,N/A,,Mostly Cloudy,10,2013-09-12 17:56:00
1:56 PM,71.1,50.0,47,30.31,10.0,NNE,4.6,-,N/A,,Mostly Cloudy,20,2013-09-12 18:56:00
2:56 PM,71.1,50.0,47,30.29,10.0,Variable,6.9,-,N/A,,Mostly Cloudy,0,2013-09-12 19:56:00
3:56 PM,72.0,48.9,44,30.27,10.0,WNW,6.9,-,N/A,,Scattered Clouds,300,2013-09-12 20:56:00
4:56 PM,73.0,48.9,42,30.26,10.0,Variable,5.8,-,N/A,,Scattered Clouds,0,2013-09-12 21:56:00
5:56 PM,71.1,48.0,44,30.25,10.0,NNE,4.6,-,N/A,,Clear,20,2013-09-12 22:56:00
6:56 PM,70.0,48.9,47,30.25,10.0,NNE,3.5,-,N/A,,Clear,20,2013-09-12 23:56:00
7:56 PM,62.1,52.0,70,30.25,10.0,NNE,4.6,-,N/A,,Clear,20,2013-09-13 00:56:00
8:56 PM,57.9,50.0,75,30.26,10.0,NE,4.6,-,N/A,,Clear,50,2013-09-13 01:56:00
9:56 PM,54.0,48.9,83,30.27,10.0,East,3.5,-,N/A,,Clear,80,2013-09-13 02:56:00
10:56 PM,53.1,48.9,86,30.26,10.0,East,4.6,-,N/A,,Clear,80,2013-09-13 03:56:00
11:56 PM,52.0,48.0,86,30.25,10.0,East,4.6,-,N/A,,Clear,80,2013-09-13 04:56:00